FW3211 Weather Reports


time (UTC)temp
F
wind
direction
speed
knots
gust
knots
rain 1hr
in
rain 24hr
in
rain mn
in
humidity
%
barometer
mb
20260506050958 56 293 1.7 6.1 0.11 1.62 1.07 82 1009.6
20260506050738 56 262 1.7 7.0 0.11 1.65 1.07 82 1009.7
20260506044953 55 249 0.9 4.3 0.11 1.74 1.07 81 1009.9
20260506044454 55 155 0.0 1.7 0.11 1.76 1.07 81 1010.0
20260506043954 56 199 0.9 4.3 0.11 1.76 1.07 81 1009.8
20260506043453 56 226 2.6 9.6 0.11 1.78 1.07 82 1009.7
20260506043251 55 195 1.7 7.8 0.07 1.81 1.02 81 1010.1
20260506043209 56 178 2.6 9.6 0.10 1.80 1.06 82 1010.0
20260506041951 54 289 1.7 2.6 0.01 1.83 0.97 81 1009.8
20260506041449 54 287 1.7 3.5 0.00 1.90 0.96 81 1009.8
20260506040948 54 285 0.9 3.5 0.01 1.93 0.96 81 1010.1
20260506040451 55 320 0.0 2.6 0.01 1.94 0.96 81 1010.1
20260506035948 55 320 0.0 0.9 0.01 1.94 0.96 81 1010.1
20260506035727 55 320 0.9 1.7 0.02 1.95 0.96 81 1010.2
20260506034948 54 320 0.9 2.6 0.09 1.97 0.96 81 1010.3
20260506034445 54 320 0.9 2.6 0.24 2.01 0.96 80 1010.4
20260506033946 54 320 0.9 2.6 0.43 2.03 0.96 80 1010.3
20260506033444 54 320 1.7 3.5 0.53 2.06 0.96 80 1010.1
20260506033227 54 334 1.7 3.5 0.57 2.08 0.96 80 1010.1
20260506032441 54 354 1.7 3.5 0.59 2.09 0.96 80 1010.2
20260506031940 54 20 1.7 5.2 0.62 2.09 0.96 80 1010.3
20260506031437 54 21 0.9 5.2 0.64 2.09 0.95 80 1010.2
20260506031218 54 229 1.7 5.2 0.71 1.39 0.94 80 1010.1
20260506031212 54 110 1.7 5.2 0.81 1.39 0.87 80 1010.6
20260506031204 54 316 1.7 4.3 0.67 1.41 0.70 80 1010.5
20260506031155 54 302 1.7 3.5 0.48 1.43 0.52 80 1010.0
20260506031121 54 300 0.0 2.6 0.65 2.09 0.95 80 1010.4
20260506031019 54 29 0.9 3.5 0.69 2.09 0.95 80 1010.4
20260506030331 54 21 1.7 5.2 0.73 1.39 0.94 80 1010.3
20260506023831 54 14 1.7 3.5 0.39 1.45 0.43 79 1010.1
20260506022927 55 219 1.7 5.2 0.36 1.46 0.39 79 1009.9
20260506022715 55 354 1.7 7.0 0.35 1.48 0.36 79 1009.9
20260506021927 55 24 1.7 7.0 0.32 1.49 0.33 79 1010.2
20260506021426 55 354 0.9 2.6 0.30 1.50 0.31 78 1010.4
20260506020926 55 69 0.9 2.6 0.29 1.51 0.29 78 1010.3
20260506020427 55 173 0.0 1.7 0.27 1.52 0.27 78 1010.6
20260506020217 55 173 0.9 2.6 0.24 1.28 0.24 78 1010.3
20260506015523 56 308 0.0 0.9 0.06 1.30 0.06 78 1010.7
20260506015505 55 173 0.9 2.6 0.20 1.29 0.20 78 1010.5
20260506014426 56 308 0.9 1.7 0.06 1.31 0.06 78 1010.5
20260506013926 56 308 0.9 2.6 0.06 1.31 0.05 77 1010.5
20260506013426 56 308 0.9 2.6 0.05 1.31 0.05 77 1010.7
20260506013217 56 307 0.9 1.7 0.03 1.31 0.03 77 1011.0
20260506012422 56 307 0.9 1.7 0.02 1.31 0.02 77 1011.0
20260506011923 56 307 0.9 1.7 0.02 1.32 0.02 77 1011.1
20260506011800 56 307 0.9 2.6 0.01 1.34 0.01 76 1011.2
20260506011439 56 307 0.9 2.6 0.02 1.33 0.02 77 1011.1
20260506010422 56 302 0.9 1.7 0.00 1.35 0.00 76 1011.3
20260506005923 56 301 0.9 1.7 0.00 1.35 0.00 76 1011.3
20260506005420 56 301 0.9 1.7 0.00 1.35 0.00 76 1011.3
20260506005214 56 289 0.9 2.6 0.00 1.36 0.00 76 1011.4
20260506004421 56 289 0.9 3.5 0.00 1.36 0.00 76 1011.4
20260506003921 56 287 0.9 4.3 0.00 1.36 0.00 75 1011.5
20260506003420 56 298 0.9 4.3 0.00 1.36 0.00 75 1011.8
20260506002916 56 57 0.0 1.7 0.00 1.36 0.00 75 1011.8
20260506002416 56 57 0.0 1.7 0.00 1.36 0.00 74 1011.8
20260506001916 56 57 1.7 5.2 0.00 1.36 0.00 74 1011.7
20260506001416 56 79 1.7 5.2 0.00 1.36 0.00 74 1011.9
20260506000914 56 181 1.7 3.5 0.00 1.36 0.00 74 1011.8
20260506000416 56 326 1.7 2.6 0.00 1.36 0.00 74 1011.5
20260505235914 56 325 0.9 1.7 0.00 1.36 0.00 74 1011.7
20260505235416 56 325 0.9 2.6 0.00 1.36 0.00 74 1011.7
20260505234914 56 325 1.7 2.6 0.00 1.36 0.00 74 1011.8
20260505234416 56 325 1.7 2.6 0.00 1.36 0.00 74 1012.0
20260505233912 56 325 1.7 2.6 0.00 1.36 0.00 74 1012.1
20260505233412 56 324 1.7 2.6 0.00 1.36 0.00 74 1012.3
20260505232912 56 315 1.7 2.6 0.00 1.36 0.00 74 1012.2
20260505232411 56 313 0.9 1.7 0.00 1.36 0.00 74 1012.5
20260505231912 56 312 0.9 2.6 0.00 1.36 0.00 74 1012.5
20260505231406 56 312 0.9 2.6 0.00 1.36 0.00 74 1012.5
20260505230907 56 311 0.9 2.6 0.00 1.36 0.00 74 1012.6
20260505230407 56 311 0.9 2.6 0.00 1.36 0.00 74 1012.8
20260505225909 56 311 0.9 1.7 0.00 1.36 0.00 74 1012.8
20260505225407 56 311 0.9 1.7 0.00 1.36 0.00 74 1012.8
20260505224907 56 311 0.9 2.6 0.00 1.36 0.00 74 1012.9
20260505224411 56 311 0.9 2.6 0.00 1.36 0.00 74 1013.0
20260505223909 56 311 1.7 2.6 0.00 1.36 0.00 74 1013.1
20260505223408 56 310 1.7 2.6 0.00 1.36 0.00 74 1013.2
20260505222908 56 328 0.9 2.6 0.00 1.36 0.00 74 1013.2
20260505222659 56 328 0.9 1.7 0.00 1.36 0.00 74 1013.3
20260505221906 56 328 0.9 1.7 0.00 1.36 0.00 74 1013.3
20260505221407 56 328 0.9 1.7 0.00 1.36 0.00 74 1013.3
20260505220905 56 328 0.9 2.6 0.00 1.36 0.00 74 1013.3
20260505220404 56 328 0.9 2.6 0.00 1.36 0.00 74 1013.2
20260505215905 56 328 1.7 2.6 0.00 1.36 1.36 74 1013.2
20260505215406 56 328 1.7 3.5 0.00 1.36 1.36 74 1013.3
20260505215154 56 288 1.7 3.5 0.00 1.36 1.36 74 1013.4
20260505214405 56 288 1.7 3.5 0.00 1.36 1.36 75 1013.4
20260505214152 56 323 1.7 3.5 0.00 1.36 1.36 75 1013.4
20260505213402 56 323 1.7 3.5 0.00 1.36 1.36 75 1013.5
20260505212907 56 334 1.7 2.6 0.00 1.36 1.36 74 1013.5
20260505212407 56 334 1.7 2.6 0.00 1.36 1.36 74 1013.5
20260505211904 56 292 1.7 3.5 0.00 1.36 1.36 74 1013.5
20260505211405 56 291 1.7 3.5 0.00 1.36 1.36 74 1013.4
20260505210955 56 331 1.7 2.6 0.00 1.36 1.36 74 1013.6
20260505210941 56 330 1.7 2.6 0.00 1.36 1.36 74 1013.5
20260505210148 56 359 1.7 2.6 0.00 1.36 1.36 74 1013.6
20260505205653 57 303 0.9 2.6 0.00 1.36 1.36 74 1013.7
20260505204907 57 303 0.9 1.7 0.00 1.36 1.36 74 1013.7
20260505204641 57 303 0.9 1.7 0.00 1.36 1.36 74 1013.8
20260505203906 57 303 0.9 2.6 0.00 1.36 1.36 74 1013.9
20260505203404 57 303 1.7 2.6 0.00 1.36 1.36 74 1013.9
20260505202905 57 303 1.7 2.6 0.00 1.36 1.36 74 1014.0
20260505202405 57 292 0.9 3.5 0.00 1.36 1.36 74 1014.0
20260505201906 57 284 0.9 3.5 0.00 1.36 1.36 73 1014.0
20260505201402 57 257 0.9 2.6 0.00 1.36 1.36 73 1014.1
20260505201207 57 234 0.9 2.6 0.00 1.36 1.36 73 1014.1
20260505200401 57 235 0.9 3.5 0.00 1.36 1.36 73 1014.1
20260505195858 58 226 0.9 3.5 0.00 1.36 1.36 73 1014.0
20260505195355 58 157 0.9 3.5 0.00 1.36 1.36 73 1014.0
20260505194856 58 220 0.9 3.5 0.00 1.36 1.36 73 1014.0
20260505194358 58 210 0.9 3.5 0.00 1.36 1.36 73 1013.9
20260505193857 58 297 0.9 2.6 0.00 1.36 1.36 73 1013.8
20260505193355 57 297 0.9 2.6 0.00 1.36 1.36 73 1013.8
20260505193143 57 224 0.9 6.1 0.00 1.36 1.36 73 1013.8
20260505192353 57 201 0.9 6.1 0.00 1.36 1.36 73 1013.8
20260505191856 57 280 0.9 3.5 0.00 1.36 1.36 73 1013.7
20260505191354 57 280 0.9 3.5 0.00 1.36 1.36 73 1013.7
20260505190855 57 222 0.9 2.6 0.00 1.36 1.36 73 1013.7
20260505190353 58 307 0.9 6.1 0.00 1.36 1.36 73 1013.6
20260505185856 58 308 0.9 6.1 0.00 1.36 1.36 72 1013.6
20260505185354 58 208 0.9 3.5 0.00 1.36 1.36 72 1013.6
20260505184854 58 276 0.9 4.3 0.00 1.36 1.36 73 1013.6
20260505184354 58 238 1.7 6.1 0.00 1.36 1.36 72 1013.6
20260505183854 58 170 0.9 6.1 0.00 1.36 1.36 72 1013.7
20260505183639 58 144 0.9 4.3 0.00 1.36 1.36 72 1013.7
20260505182851 58 144 0.9 4.3 0.00 1.36 1.36 72 1013.6
20260505182353 58 125 0.9 2.6 0.00 1.36 1.36 73 1013.7
20260505182136 58 202 0.9 2.6 0.00 1.36 1.36 73 1013.6
20260505181351 58 201 0.9 3.5 0.00 1.36 1.36 73 1013.6
20260505180852 58 91 0.9 3.5 0.00 1.36 1.36 73 1013.6
20260505180352 58 115 1.7 3.5 0.00 1.36 1.36 72 1013.7
20260505180144 58 139 1.7 5.2 0.00 1.36 1.36 72 1013.7
20260505175631 58 116 0.9 5.2 0.00 1.36 1.36 73 1013.6
20260505174850 58 152 0.9 3.5 0.00 1.36 1.36 72 1013.5
20260505174349 58 145 0.9 2.6 0.00 1.36 1.36 72 1013.5
20260505173847 58 145 0.9 4.3 0.00 1.36 1.36 72 1013.6
20260505173345 58 144 1.7 5.2 0.00 1.36 1.36 71 1013.6
20260505173130 58 147 1.7 5.2 0.00 1.36 1.36 71 1013.6
20260505172345 58 150 1.7 4.3 0.00 1.36 1.36 71 1013.5
20260505172137 58 243 1.7 4.3 0.00 1.36 1.36 71 1013.5
20260505171346 59 156 1.7 4.3 0.00 1.36 1.36 71 1013.5
20260505170852 59 156 1.7 5.2 0.00 1.36 1.36 71 1013.4
20260505170417 59 181 1.7 5.2 0.00 1.36 1.36 71 1013.5
20260505170406 59 160 1.7 5.2 0.00 1.36 1.36 71 1013.5
20260505165344 59 160 1.7 5.2 0.00 1.36 1.36 71 1013.4
20260505164844 59 142 0.9 5.2 0.00 1.36 1.36 71 1013.5
20260505164339 59 139 1.7 3.5 0.00 1.36 1.36 71 1013.4
20260505163840 59 128 0.9 4.3 0.00 1.36 1.36 72 1013.5
20260505163341 59 149 1.7 4.3 0.00 1.36 1.36 72 1013.5
20260505162843 59 172 1.7 5.2 0.00 1.36 1.36 72 1013.5
20260505162339 59 204 1.7 5.2 0.00 1.36 1.36 72 1013.5
20260505161839 59 160 0.9 3.5 0.00 1.36 1.36 72 1013.6
20260505161339 59 168 0.9 3.5 0.00 1.36 1.36 72 1013.7
20260505160836 59 180 0.9 5.2 0.00 1.36 1.36 71 1013.7
20260505160622 59 186 0.9 5.2 0.00 1.36 1.36 72 1013.7
20260505153333 59 166 1.7 3.5 0.00 1.36 1.36 71 1013.9
20260505152833 59 198 1.7 3.5 0.00 1.36 1.36 71 1013.9
20260505152617 59 108 0.9 3.5 0.00 1.36 1.36 71 1013.9
20260505151834 59 216 1.7 3.5 0.00 1.36 1.36 71 1013.9
20260505151335 59 145 1.7 3.5 0.00 1.36 1.36 71 1013.9
20260505150833 59 138 1.7 3.5 0.00 1.36 1.36 71 1013.8
20260505150335 60 194 1.7 3.5 0.00 1.36 1.36 71 1013.8
20260505140337 59 189 1.7 4.3 0.00 1.36 1.36 72 1013.8
20260505124813 59 200 2.6 6.1 0.00 1.36 1.36 72 1014.0
20260505124313 60 171 1.7 7.0 0.00 1.36 1.36 73 1014.0
20260505124118 60 197 2.6 7.0 0.00 1.36 1.36 73 1014.0
20260505123309 60 83 2.6 7.0 0.00 1.36 1.36 75 1014.0
20260505122810 59 206 1.7 5.2 0.00 1.36 1.36 76 1014.0
20260505122306 59 171 2.6 6.1 0.00 1.36 1.36 77 1014.0
20260505122047 59 185 2.6 6.1 0.00 1.36 1.36 78 1014.0
20260505121306 59 168 2.6 7.8 0.00 1.36 1.36 78 1013.9
20260505120806 58 175 2.6 7.8 0.00 1.36 1.36 78 1014.0
20260505120304 58 191 2.6 7.0 0.00 1.36 1.36 77 1014.0
20260505115804 58 139 2.6 7.0 0.00 1.36 1.36 76 1013.9
20260505115306 58 174 2.6 7.8 0.00 1.36 1.36 76 1014.0
20260505114804 58 99 2.6 7.8 0.00 1.36 1.36 76 1013.9
20260505114304 58 187 2.6 7.8 0.00 1.36 1.36 76 1013.9
20260505113804 58 83 1.7 7.0 0.00 1.36 1.36 76 1013.9
20260505113622 58 144 1.7 8.7 0.00 1.36 1.36 76 1014.0
20260505113618 58 131 2.6 8.7 0.00 1.36 1.36 76 1014.0
20260505112305 58 158 1.7 7.8 0.00 1.36 1.36 76 1014.0
20260505111803 58 109 1.7 4.3 0.00 1.36 1.36 76 1013.9
20260505111304 58 179 2.6 7.0 0.00 1.36 1.36 76 1013.9
20260505110811 58 135 3.5 8.7 0.00 1.36 1.36 74 1013.8
20260505110259 58 133 3.5 8.7 0.00 1.36 1.36 74 1013.8
20260505101755 59 156 1.7 6.1 0.00 1.36 1.36 72 1013.6
20260505101248 59 156 1.7 6.1 0.00 1.36 1.36 72 1013.6
20260505100751 59 209 1.7 4.3 0.00 1.36 1.36 72 1013.6
20260505100344 59 211 0.9 3.5 0.00 1.36 1.36 79 1013.5
20260505100324 59 211 0.9 3.5 0.00 1.36 1.36 75 1013.6
20260505095538 58 203 0.9 3.5 0.00 1.36 1.36 80 1013.5
20260505094743 58 214 0.9 3.5 0.00 1.36 1.36 80 1013.4
20260505094243 57 214 0.9 3.5 0.00 1.36 1.36 81 1013.4
20260505093743 57 326 0.9 1.7 0.00 1.36 1.36 81 1013.4
20260505093246 57 326 0.9 1.7 0.00 1.36 1.36 81 1013.4
20260505093029 57 326 0.9 2.6 0.00 1.36 1.36 81 1013.4
20260505092526 56 326 1.7 2.6 0.00 1.36 1.36 81 1013.4
20260505092036 56 309 0.9 2.6 0.00 1.36 1.36 81 1013.5
20260505091238 56 292 0.9 3.5 0.00 1.36 1.36 81 1013.5
20260505091032 56 292 0.9 3.5 0.00 1.36 1.36 81 1013.5
20260505090237 56 8 0.9 1.7 0.00 1.36 1.36 81 1013.5
20260505085735 56 8 0.9 1.7 0.00 1.36 1.36 81 1013.5
20260505085519 56 8 0.9 2.6 0.00 1.36 1.36 81 1013.4
20260505084737 56 9 0.9 2.6 0.00 1.36 1.36 81 1013.4
20260505084234 55 347 0.9 1.7 0.00 1.36 1.36 81 1013.4
20260505083733 55 347 0.9 1.7 0.00 1.36 1.36 81 1013.3
20260505083512 55 347 0.9 2.6 0.00 1.36 1.36 81 1013.3
20260505082731 55 347 0.9 2.6 0.00 1.36 1.36 81 1013.2
20260505082229 55 29 0.9 1.7 0.00 1.36 1.36 81 1013.2
20260505081737 55 29 0.0 1.7 0.00 1.36 1.36 81 1013.1
20260505081230 55 29 0.9 2.6 0.01 1.36 1.36 81 1013.0
20260505080729 55 29 0.9 2.6 0.01 1.36 1.36 81 1013.1
20260505080230 55 30 0.0 2.6 0.01 1.36 1.36 81 1013.1
20260505075727 54 147 0.0 1.7 0.02 1.35 1.36 81 1013.2
20260505075225 54 147 0.9 2.6 0.02 1.35 1.36 81 1013.3
20260505074727 54 147 0.9 2.6 0.02 1.35 1.36 81 1013.4
20260505074220 54 148 0.9 2.6 0.02 1.35 1.36 81 1013.4
20260505074005 54 148 0.9 2.6 0.02 1.35 1.36 81 1013.4
20260505073521 54 75 0.0 1.7 0.04 1.35 1.36 81 1013.4
20260505072717 54 52 0.0 1.7 0.06 1.35 1.36 81 1013.4
20260505072217 54 52 0.9 1.7 0.10 1.35 1.36 81 1013.4
20260505071711 54 52 0.9 1.7 0.17 1.35 1.36 81 1013.3
20260505071455 54 52 0.9 1.7 0.25 1.35 1.35 80 1013.2
20260505070708 54 52 0.9 2.6 0.38 1.35 1.35 80 1013.2
20260505070209 53 354 1.7 4.3 0.41 1.35 1.35 80 1013.1
20260505065948 53 284 1.7 4.3 0.43 0.93 1.35 80 1013.2
20260505065208 53 283 1.7 4.3 0.46 0.93 1.35 80 1013.2
20260505064707 53 269 1.7 4.3 0.48 0.93 1.35 80 1013.2
20260505064528 53 272 0.9 4.3 0.49 0.93 1.33 80 1013.2
20260505064521 53 280 0.9 3.5 0.48 0.93 1.34 80 1013.1
20260505063207 53 43 0.9 4.3 0.47 0.93 1.31 80 1013.3
20260505063117 54 90 1.7 7.0 0.28 1.10 1.09 80 1013.0
20260505063108 54 63 1.7 7.0 0.36 0.93 1.18 80 1013.0
20260505062747 54 61 1.7 3.5 0.44 0.93 1.28 80 1013.2
20260505062651 54 60 1.7 5.2 0.41 0.93 1.24 80 1013.1
20260505060705 54 295 1.7 2.6 0.18 0.98 0.97 80 1012.8
20260505060500 54 4 1.7 2.6 0.17 0.94 0.94 80 1012.5
20260505055654 54 8 1.7 3.5 0.17 0.91 0.91 80 1012.3
20260505055148 54 354 1.7 3.5 0.29 0.88 0.87 80 1012.2